• In Germany
  • List of Countries
  • For 7 days
  • Water Temperature
  • Satellite Maps
  • Weather Map
  • Weather Widgets
  • user-avatar
    Login

    Hourly Weather Iława

    Today, 24 October, Tuesday

    Time Temperature Precipitation Wind Pressure Humidity
    00:00 +6°C° 0 mm 2 mps 756 mmHg 88%
    01:00 +6°C° 0 mm 2 mps 756 mmHg 87%
    02:00 +6°C° 0 mm 2 mps 756 mmHg 87%
    03:00 +6°C° 0 mm 2 mps 757 mmHg 86%
    04:00 +6°C° 0 mm 2 mps 757 mmHg 85%
    05:00 +6°C° 0 mm 2 mps 757 mmHg 85%
    06:00 +6°C° 0 mm 2 mps 758 mmHg 85%
    07:00 +6°C° 0 mm 2 mps 758 mmHg 84%
    08:00 +5°C° 0 mm 3 mps 759 mmHg 82%
    09:00 +5°C° 0 mm 3 mps 759 mmHg 79%
    10:00 +7°C° 0 mm 3 mps 759 mmHg 77%
    11:00 +7°C° 0 mm 3 mps 759 mmHg 74%
    12:00 +8°C° 0 mm 3 mps 759 mmHg 72%
    13:00 +9°C° 0 mm 3 mps 760 mmHg 70%
    14:00 +8°C° 0 mm 3 mps 759 mmHg 72%
    15:00 +8°C° 0 mm 3 mps 759 mmHg 73%
    16:00 +8°C° 0 mm 3 mps 759 mmHg 75%
    17:00 +7°C° 0 mm 3 mps 759 mmHg 76%
    18:00 +7°C° 0 mm 3 mps 760 mmHg 77%
    19:00 +7°C° 0 mm 3 mps 760 mmHg 78%
    20:00 +5°C° 0 mm 4 mps 760 mmHg 78%
    21:00 +5°C° 0 mm 4 mps 760 mmHg 78%
    22:00 +5°C° 0 mm 4 mps 760 mmHg 78%
    23:00 +5°C° 0.5 mm 4 mps 759 mmHg 79%

    Tomorrow, 25 October, Wednesday

    Time Temperature Precipitation Wind Pressure Humidity
    00:00 +5°C° 0.5 mm 5 mps 759 mmHg 80%
    01:00 +5°C° 0.5 mm 5 mps 759 mmHg 81%
    02:00 +5°C° 0.2 mm 5 mps 759 mmHg 82%
    03:00 +4°C° 0.2 mm 6 mps 758 mmHg 82%
    04:00 +4°C° 0.2 mm 6 mps 758 mmHg 82%
    05:00 +4°C° 0.3 mm 6 mps 757 mmHg 82%
    06:00 +4°C° 0.3 mm 7 mps 757 mmHg 82%
    07:00 +4°C° 0.3 mm 7 mps 757 mmHg 82%
    08:00 +4°C° 1.5 mm 7 mps 756 mmHg 84%
    09:00 +5°C° 1.5 mm 7 mps 756 mmHg 85%
    10:00 +5°C° 1.5 mm 8 mps 756 mmHg 86%
    11:00 +5°C° 2 mm 8 mps 755 mmHg 87%
    12:00 +5°C° 2 mm 8 mps 755 mmHg 88%
    13:00 +5°C° 2 mm 8 mps 754 mmHg 89%
    14:00 +6°C° 0.3 mm 7 mps 754 mmHg 90%
    15:00 +8°C° 0.3 mm 7 mps 753 mmHg 91%
    16:00 +9°C° 0.3 mm 6 mps 753 mmHg 92%
    17:00 +10°C° 0.3 mm 6 mps 753 mmHg 92%
    18:00 +10°C° 0.3 mm 6 mps 752 mmHg 92%
    19:00 +11°C° 0.3 mm 6 mps 752 mmHg 91%
    20:00 +11°C° 0.2 mm 6 mps 753 mmHg 91%
    21:00 +10°C° 0.2 mm 5 mps 753 mmHg 91%
    22:00 +10°C° 0.2 mm 5 mps 753 mmHg 90%
    23:00 +10°C° 0 mm 4 mps 754 mmHg 91%

    Day after tomorrow, 26 October, Thursday

    Time Temperature Precipitation Wind Pressure Humidity
    00:00 +10°C° 0 mm 4 mps 754 mmHg 92%
    01:00 +8°C° 0 mm 4 mps 754 mmHg 92%
    02:00 +8°C° 0 mm 4 mps 754 mmHg 92%
    03:00 +8°C° 0 mm 4 mps 754 mmHg 92%
    04:00 +8°C° 0 mm 4 mps 754 mmHg 91%
    05:00 +8°C° 0 mm 4 mps 755 mmHg 91%
    06:00 +8°C° 0 mm 4 mps 755 mmHg 92%
    07:00 +8°C° 0 mm 4 mps 755 mmHg 92%
    08:00 +8°C° 0 mm 5 mps 755 mmHg 88%
    09:00 +9°C° 0 mm 5 mps 755 mmHg 84%
    10:00 +10°C° 0 mm 6 mps 755 mmHg 80%
    11:00 +10°C° 0 mm 6 mps 755 mmHg 79%
    12:00 +10°C° 0 mm 6 mps 754 mmHg 77%
    13:00 +10°C° 0 mm 6 mps 754 mmHg 76%
    14:00 +10°C° 0 mm 5 mps 754 mmHg 78%
    15:00 +10°C° 0 mm 5 mps 754 mmHg 79%
    16:00 +10°C° 0 mm 4 mps 754 mmHg 81%
    17:00 +10°C° 0 mm 4 mps 753 mmHg 83%
    18:00 +10°C° 0 mm 4 mps 753 mmHg 85%
    19:00 +10°C° 0 mm 4 mps 753 mmHg 87%
    20:00 +8°C° 0 mm 4 mps 752 mmHg 88%
    21:00 +8°C° 0 mm 4 mps 752 mmHg 88%
    22:00 +8°C° 0 mm 4 mps 752 mmHg 89%
    23:00 +8°C° 0 mm 4 mps 751 mmHg 90%

    27 October, Friday

    Time Temperature Precipitation Wind Pressure Humidity
    00:00 +8°C° 0 mm 4 mps 751 mmHg 91%
    01:00 +7°C° 0 mm 4 mps 750 mmHg 92%
    02:00 +7°C° 0 mm 4 mps 749 mmHg 93%
    03:00 +7°C° 0 mm 4 mps 749 mmHg 94%
    04:00 +7°C° 0 mm 4 mps 748 mmHg 95%
    05:00 +7°C° 0 mm 4 mps 748 mmHg 94%
    06:00 +7°C° 0 mm 4 mps 748 mmHg 93%
    07:00 +7°C° 0 mm 4 mps 747 mmHg 92%
    08:00 +8°C° 0 mm 4 mps 747 mmHg 88%
    09:00 +8°C° 0 mm 5 mps 747 mmHg 84%
    10:00 +9°C° 0 mm 5 mps 746 mmHg 79%
    11:00 +9°C° 0.2 mm 6 mps 746 mmHg 77%
    12:00 +9°C° 0.2 mm 6 mps 745 mmHg 76%
    13:00 +10°C° 0.2 mm 6 mps 745 mmHg 74%
    14:00 +9°C° 0.1 mm 5 mps 744 mmHg 75%
    15:00 +9°C° 0.1 mm 5 mps 744 mmHg 76%
    16:00 +8°C° 0.1 mm 4 mps 743 mmHg 77%
    17:00 +8°C° 0 mm 4 mps 743 mmHg 80%
    18:00 +7°C° 0 mm 4 mps 743 mmHg 82%
    19:00 +6°C° 0 mm 4 mps 743 mmHg 85%
    20:00 +6°C° 0.1 mm 5 mps 742 mmHg 86%
    21:00 +6°C° 0.1 mm 5 mps 742 mmHg 87%
    22:00 +7°C° 0.1 mm 5 mps 742 mmHg 88%
    23:00 +7°C° 0.2 mm 5 mps 742 mmHg 87%

    28 October, Saturday

    Time Temperature Precipitation Wind Pressure Humidity
    00:00 +7°C° 0.2 mm 6 mps 742 mmHg 87%
    01:00 +7°C° 0.2 mm 6 mps 742 mmHg 87%
    02:00 +7°C° 0.1 mm 5 mps 742 mmHg 87%
    03:00 +6°C° 0.1 mm 5 mps 743 mmHg 88%
    04:00 +6°C° 0.1 mm 4 mps 743 mmHg 88%
    05:00 +5°C° 0.1 mm 4 mps 743 mmHg 89%
    06:00 +5°C° 0.1 mm 4 mps 743 mmHg 89%
    07:00 +5°C° 0.1 mm 4 mps 743 mmHg 90%
    08:00 +5°C° 0 mm 5 mps 743 mmHg 87%
    09:00 +6°C° 0 mm 5 mps 742 mmHg 83%
    10:00 +7°C° 0 mm 6 mps 742 mmHg 80%
    11:00 +7°C° 0.1 mm 6 mps 741 mmHg 79%
    12:00 +7°C° 0.1 mm 6 mps 740 mmHg 78%
    13:00 +7°C° 0.1 mm 6 mps 740 mmHg 77%
    14:00 +7°C° 0.4 mm 6 mps 739 mmHg 80%
    15:00 +7°C° 0.4 mm 5 mps 738 mmHg 83%
    16:00 +6°C° 0.4 mm 5 mps 737 mmHg 85%
    17:00 +6°C° 0.3 mm 5 mps 737 mmHg 86%
    18:00 +6°C° 0.3 mm 5 mps 736 mmHg 87%
    19:00 +6°C° 0.3 mm 5 mps 736 mmHg 87%
    20:00 +6°C° 0.1 mm 5 mps 735 mmHg 87%
    21:00 +6°C° 0.1 mm 5 mps 735 mmHg 87%
    22:00 +6°C° 0.1 mm 5 mps 734 mmHg 86%
    23:00 +6°C° 0 mm 4 mps 734 mmHg 87%

    29 October, Sunday

    Time Temperature Precipitation Wind Pressure Humidity
    00:00 +6°C° 0 mm 4 mps 734 mmHg 87%
    01:00 +6°C° 0 mm 4 mps 734 mmHg 88%
    02:00 +5°C° 0 mm 4 mps 734 mmHg 89%
    03:00 +5°C° 0 mm 3 mps 734 mmHg 90%
    04:00 +5°C° 0 mm 3 mps 734 mmHg 91%
    05:00 +6°C° 0 mm 2 mps 734 mmHg 92%
    06:00 +6°C° 0 mm 2 mps 735 mmHg 92%
    07:00 +7°C° 0 mm 1 mps 735 mmHg 93%
    08:00 +8°C° 0 mm 1 mps 736 mmHg 88%
    09:00 +9°C° 0 mm 1 mps 736 mmHg 84%
    10:00 +10°C° 0 mm 1 mps 737 mmHg 80%
    11:00 +10°C° 0 mm 1 mps 737 mmHg 76%
    12:00 +11°C° 0 mm 1 mps 737 mmHg 72%
    13:00 +11°C° 0 mm 1 mps 738 mmHg 69%
    14:00 +11°C° 0 mm 1 mps 738 mmHg 72%
    15:00 +10°C° 0 mm 1 mps 739 mmHg 75%
    16:00 +9°C° 0 mm 1 mps 739 mmHg 78%
    17:00 +9°C° 0 mm 1 mps 740 mmHg 81%
    18:00 +7°C° 0 mm 2 mps 740 mmHg 84%
    19:00 +7°C° 0 mm 2 mps 741 mmHg 87%
    20:00 +7°C° 0 mm 2 mps 742 mmHg 87%
    21:00 +7°C° 0 mm 3 mps 742 mmHg 88%
    22:00 +7°C° 0 mm 3 mps 743 mmHg 88%
    23:00 +5°C° 0 mm 3 mps 743 mmHg 88%

    30 October, Monday

    Time Temperature Precipitation Wind Pressure Humidity
    00:00 +5°C° 0 mm 3 mps 744 mmHg 88%
    01:00 +5°C° 0 mm 3 mps 744 mmHg 88%
    02:00 +4°C° 0 mm 3 mps 744 mmHg 89%
    03:00 +4°C° 0 mm 3 mps 745 mmHg 90%
    04:00 +4°C° 0 mm 2 mps 745 mmHg 91%
    05:00 +4°C° 0 mm 2 mps 745 mmHg 92%
    06:00 +4°C° 0 mm 2 mps 745 mmHg 92%
    07:00 +3°C° 0 mm 2 mps 746 mmHg 93%
    08:00 +4°C° 0 mm 3 mps 746 mmHg 87%
    09:00 +5°C° 0 mm 3 mps 746 mmHg 81%
    10:00 +7°C° 0 mm 3 mps 746 mmHg 75%
    11:00 +7°C° 0 mm 4 mps 746 mmHg 73%
    12:00 +7°C° 0 mm 4 mps 745 mmHg 72%
    13:00 +8°C° 0 mm 5 mps 745 mmHg 70%
    14:00 +7°C° 0 mm 5 mps 745 mmHg 73%
    15:00 +7°C° 0 mm 5 mps 744 mmHg 76%
    16:00 +6°C° 0 mm 5 mps 744 mmHg 79%
    17:00 +6°C° 0 mm 5 mps 744 mmHg 80%
    18:00 +6°C° 0 mm 5 mps 743 mmHg 82%
    19:00 +5°C° 0 mm 6 mps 743 mmHg 84%
    20:00 +7°C° 0 mm 6 mps 743 mmHg 84%
    21:00 +7°C° 0 mm 6 mps 742 mmHg 85%
    22:00 +7°C° 0 mm 6 mps 742 mmHg 85%
    23:00 +7°C° 0.1 mm 6 mps 741 mmHg 83%
    Show more